Murray, KY

7:31 PM CDT on April 22, 2018 (GMT -0500)
Kyle-Oakley

Weather History for KCEY - January, 2013

Change the Weather History Date:

Saturday, January 26, 2013

  Actual Average (KPAH) Record (KPAH)
Temperature  
Mean Temperature 34 °F -  
Max Temperature 44 °F 41 °F 72 °F (1950)
Min Temperature 24 °F 24 °F -8 °F (1940)
Degree Days  
Heating Degree Days 31    
Moisture  
Dew Point 25 °F    
Average Humidity 70    
Maximum Humidity 93    
Minimum Humidity 46    
Precipitation  
Precipitation 0.00 in - - ()
Sea Level Pressure  
Sea Level Pressure 30.31 in    
Wind  
Wind Speed 5 mph (NNE)    
Max Wind Speed 9 mph    
Max Gust Speed -    
Visibility 9 miles    
Events      
Averages and records for this station are not official NWS values.
T = Trace of Precipitation, MM = Missing Value Source: NWS Daily Summary

Daily Weather History Graph

Daily Weather History Graph

Search for Another Location

Airport or City:

Astronomy

Jan. 26, 2013 Rise Set
Actual Time 6:59 AM CST 5:13 PM CST
Civil Twilight 6:32 AM CST 5:40 PM CST
Nautical Twilight 6:00 AM CST 6:11 PM CST
Astronomical Twilight 5:30 AM CST 6:42 PM CST
Moon 5:06 PM CST (1/26) 6:18 AM CST (1/26)
Length of Visible Light 11h 08m
Length of Day
10h 13m
Full, 100% of the Moon is Illuminated
Jan 26
Full
Jan 26
Full
Feb 3
Last Quarter
Feb 10
New
Feb 17
First Quarter

Hourly Weather History & Observations

Time (CST) Temp. Windchill Dew Point Humidity Pressure Visibility Wind Dir Wind Speed Gust Speed Precip Events Conditions
12:15 AM 26.6 °F 22.6 °F 24.8 °F 93% 30.25 in 7.0 mi SW 3.5 mph - N/A   Clear
12:35 AM 26.6 °F - 24.8 °F 93% 30.26 in 8.0 mi Calm Calm - N/A   Clear
12:55 AM 26.6 °F 21.2 °F 24.8 °F 93% 30.26 in 6.0 mi WSW 4.6 mph - N/A   Clear
1:15 AM 26.6 °F - 24.8 °F 93% 30.25 in 5.0 mi Calm Calm - N/A   Clear
1:35 AM 26.6 °F - 24.8 °F 93% 30.25 in 7.0 mi Calm Calm - N/A   Clear
1:55 AM 24.8 °F 19.1 °F 23.0 °F 93% 30.25 in 7.0 mi SW 4.6 mph - N/A   Clear
2:15 AM 28.4 °F 23.3 °F 26.6 °F 93% 30.26 in 7.0 mi SW 4.6 mph - N/A   Clear
2:35 AM 28.4 °F 22.2 °F 26.6 °F 93% 30.26 in 7.0 mi WSW 5.8 mph - N/A   Clear
2:55 AM 30.2 °F 22.6 °F 26.6 °F 86% 30.27 in 8.0 mi SW 8.1 mph - N/A   Clear
3:15 AM 30.2 °F 22.6 °F 28.4 °F 93% 30.27 in 7.0 mi WSW 8.1 mph - N/A   Clear
3:35 AM 30.2 °F 23.4 °F 26.6 °F 86% 30.27 in 7.0 mi WSW 6.9 mph - N/A   Clear
3:55 AM 30.2 °F 24.3 °F 26.6 °F 86% 30.26 in 7.0 mi SW 5.8 mph - N/A   Clear
4:15 AM 30.2 °F 22.6 °F 26.6 °F 86% 30.27 in 7.0 mi WSW 8.1 mph - N/A   Clear
4:35 AM 30.2 °F 22.6 °F 26.6 °F 86% 30.27 in 5.0 mi WSW 8.1 mph - N/A   Clear
4:55 AM 30.2 °F 24.3 °F 28.4 °F 93% 30.28 in 6.0 mi West 5.8 mph - N/A   Clear
5:15 AM 30.2 °F 24.3 °F 28.4 °F 93% 30.28 in 7.0 mi West 5.8 mph - N/A   Clear
5:35 AM 32.0 °F 26.4 °F 26.6 °F 80% 30.28 in 7.0 mi West 5.8 mph - N/A   Clear
5:55 AM 30.2 °F 24.3 °F 26.6 °F 86% 30.29 in 7.0 mi West 5.8 mph - N/A   Clear
6:15 AM 30.2 °F 25.4 °F 26.6 °F 86% 30.30 in 7.0 mi West 4.6 mph - N/A   Clear
6:35 AM 30.2 °F 25.4 °F 26.6 °F 86% 30.30 in 6.0 mi WNW 4.6 mph - N/A   Clear
6:55 AM 30.2 °F 25.4 °F 26.6 °F 86% 30.31 in 5.0 mi WNW 4.6 mph - N/A   Clear
7:15 AM 30.2 °F 25.4 °F 26.6 °F 86% 30.31 in 5.0 mi WNW 4.6 mph - N/A   Clear
7:35 AM 30.2 °F 25.4 °F 26.6 °F 86% 30.32 in 5.0 mi NW 4.6 mph - N/A   Clear
7:55 AM 30.2 °F 25.4 °F 26.6 °F 86% 30.32 in 5.0 mi NNW 4.6 mph - N/A   Clear
8:15 AM 32.0 °F 26.4 °F 28.4 °F 87% 30.32 in 7.0 mi North 5.8 mph - N/A   Clear
8:35 AM 32.0 °F 28.7 °F 28.4 °F 87% 30.33 in 7.0 mi North 3.5 mph - N/A   Clear
8:55 AM 32.0 °F 27.5 °F 28.4 °F 87% 30.33 in 9.0 mi North 4.6 mph - N/A   Clear
9:15 AM 33.8 °F 29.6 °F 26.6 °F 75% 30.34 in 10.0 mi NNW 4.6 mph - N/A   Clear
9:35 AM 35.6 °F 30.7 °F 26.6 °F 70% 30.35 in 10.0 mi North 5.8 mph - N/A   Clear
9:55 AM 37.4 °F 32.8 °F 26.6 °F 65% 30.35 in 10.0 mi NNE 5.8 mph - N/A   Clear
10:15 AM 37.4 °F 32.1 °F 26.6 °F 65% 30.36 in 10.0 mi NE 6.9 mph - N/A   Clear
10:35 AM 37.4 °F 31.4 °F 24.8 °F 60% 30.36 in 10.0 mi NNE 8.1 mph - N/A   Clear
10:55 AM 39.2 °F 34.2 °F 24.8 °F 56% 30.35 in 10.0 mi NNE 6.9 mph - N/A   Clear
11:15 AM 39.2 °F 34.2 °F 26.6 °F 61% 30.36 in 10.0 mi NE 6.9 mph - N/A   Clear
11:35 AM 39.2 °F 35.9 °F 26.6 °F 61% 30.36 in 10.0 mi NNE 4.6 mph - N/A   Clear
11:55 AM 41.0 °F 35.8 °F 24.8 °F 53% 30.35 in 10.0 mi North 8.1 mph - N/A   Clear
12:15 PM 41.0 °F 35.8 °F 24.8 °F 53% 30.34 in 10.0 mi NNW 8.1 mph - N/A   Clear
12:35 PM 41.0 °F 36.4 °F 24.8 °F 53% 30.33 in 10.0 mi NNW 6.9 mph - N/A   Clear
12:55 PM 42.8 °F 38.6 °F 24.8 °F 49% 30.32 in 10.0 mi North 6.9 mph - N/A   Clear
1:15 PM 42.8 °F 39.3 °F 23.0 °F 46% 30.32 in 10.0 mi North 5.8 mph - N/A   Clear
1:35 PM 42.8 °F 39.3 °F 24.8 °F 49% 30.31 in 10.0 mi North 5.8 mph - N/A   Clear
1:55 PM 44.6 °F 40.7 °F 24.8 °F 46% 30.31 in 10.0 mi North 6.9 mph - N/A   Clear
2:15 PM 44.6 °F 40.7 °F 24.8 °F 46% 30.31 in 10.0 mi NNE 6.9 mph - N/A   Clear
2:35 PM 44.6 °F 40.2 °F 24.8 °F 46% 30.31 in 10.0 mi North 8.1 mph - N/A   Clear
2:55 PM 44.6 °F 41.4 °F 24.8 °F 46% 30.30 in 10.0 mi North 5.8 mph - N/A   Clear
3:15 PM 44.6 °F 39.7 °F 24.8 °F 46% 30.30 in 10.0 mi ENE 9.2 mph - N/A   Clear
3:35 PM 44.6 °F 41.4 °F 24.8 °F 46% 30.30 in 10.0 mi ENE 5.8 mph - N/A   Clear
3:55 PM 44.6 °F 41.4 °F 24.8 °F 46% 30.30 in 10.0 mi ENE 5.8 mph - N/A   Clear
4:15 PM 42.8 °F 38.6 °F 24.8 °F 49% 30.31 in 10.0 mi NE 6.9 mph - N/A   Clear
4:35 PM 42.8 °F 38.6 °F 23.0 °F 46% 30.31 in 10.0 mi ENE 6.9 mph - N/A   Clear
4:55 PM 41.0 °F 38.0 °F 23.0 °F 49% 30.31 in 10.0 mi NE 4.6 mph - N/A   Clear
5:15 PM 41.0 °F 37.1 °F 23.0 °F 49% 30.31 in 10.0 mi NE 5.8 mph - N/A   Clear
5:35 PM 39.2 °F 34.2 °F 23.0 °F 52% 30.32 in 10.0 mi NE 6.9 mph - N/A   Clear
5:55 PM 37.4 °F 32.1 °F 23.0 °F 56% 30.32 in 10.0 mi NE 6.9 mph - N/A   Clear
6:15 PM 37.4 °F 32.8 °F 23.0 °F 56% 30.33 in 10.0 mi NE 5.8 mph - N/A   Clear
6:35 PM 37.4 °F 32.1 °F 21.2 °F 52% 30.33 in 10.0 mi NE 6.9 mph - N/A   Clear
6:55 PM 37.4 °F 32.1 °F 21.2 °F 52% 30.34 in 10.0 mi NE 6.9 mph - N/A   Clear
7:15 PM 35.6 °F 30.7 °F 21.2 °F 56% 30.34 in 10.0 mi NE 5.8 mph - N/A   Clear
7:35 PM 33.8 °F 26.4 °F 23.0 °F 65% 30.34 in 10.0 mi ENE 9.2 mph - N/A   Clear
7:55 PM 32.0 °F 24.2 °F 23.0 °F 69% 30.34 in 10.0 mi ENE 9.2 mph - N/A   Clear
8:15 PM 32.0 °F 26.4 °F 24.8 °F 75% 30.33 in 10.0 mi ENE 5.8 mph - N/A   Clear
8:35 PM 32.0 °F 25.6 °F 23.0 °F 69% 30.33 in 10.0 mi ENE 6.9 mph - N/A   Clear
8:55 PM 32.0 °F 24.8 °F 23.0 °F 69% 30.33 in 10.0 mi ENE 8.1 mph - N/A   Clear
9:15 PM 32.0 °F 26.4 °F 23.0 °F 69% 30.33 in 10.0 mi East 5.8 mph - N/A   Clear
9:35 PM 32.0 °F 26.4 °F 23.0 °F 69% 30.34 in 10.0 mi East 5.8 mph - N/A   Clear
9:55 PM 32.0 °F 26.4 °F 23.0 °F 69% 30.34 in 10.0 mi East 5.8 mph - N/A   Clear
10:15 PM 32.0 °F 26.4 °F 23.0 °F 69% 30.34 in 10.0 mi East 5.8 mph - N/A   Clear
10:35 PM 32.0 °F 26.4 °F 23.0 °F 69% 30.34 in 10.0 mi East 5.8 mph - N/A   Clear
10:55 PM 32.0 °F 26.4 °F 24.8 °F 75% 30.34 in 10.0 mi ESE 5.8 mph - N/A   Clear
11:15 PM 32.0 °F 24.8 °F 24.8 °F 75% 30.33 in 10.0 mi East 8.1 mph - N/A   Clear
11:35 PM 32.0 °F 25.6 °F 24.8 °F 75% 30.32 in 10.0 mi East 6.9 mph - N/A   Clear
11:55 PM 30.2 °F 24.3 °F 24.8 °F 80% 30.33 in 10.0 mi ESE 5.8 mph - N/A   Clear